Flag for Germany Weather past 2 weeks in Dresden, Saxony, Germany

Now
41 °F

Partly cloudy.


Feels Like: 33 °F
Forecast: 43 / 49 °F
Wind: 15 mph from Southwest

Location: Dresden-Klotzsche

Current Time: Dec 21, 2014 at 7:22:24 PM

Latest Report: Dec 21, 2014 at 6:50 PM


Visibility: N/A

Pressure: 30.21 "Hg

Humidity: 76%

Dew point: 34 °F

Location of DresdenLocation

Historic Weather in Dresden — Graph

°F

Dresden temperature yesterday

Maximum temperature yesterday: 43 °F (at 12:20 AM)
Minimum temperature yesterday: 36 °F (at 6:50 PM)
Average temperature yesterday: 40 °F

Past Weeks' High & Low Weather Summary

 TemperatureHumidityPressure
High54 °F (Dec 18, 10:50 PM)100% (Dec 7, 2:20 AM)30.39 "Hg (Dec 7, 2:20 AM)
Low25 °F (Dec 9, 6:50 AM)62% (Dec 12, 4:50 PM)29.53 "Hg (Dec 12, 10:20 PM)
Average40 °F84%29.95 "Hg
* Reported Dec 6 6:20 PM — Dec 21 6:20 PM, Dresden, Weather by CustomWeather, © 2014

Note: Actual official high and low records may vary slightly from our data, if they occured in-between our weather recording intervals... More about our weather records

Advertising

Dresden weather history for previous 24 hours

 ConditionsComfort  
Time TempWeatherWind HumidityBarometerVisibility
6:20 PM
Dec 21
41 °FPassing clouds.12 mph76%30.21 "HgN/A
5:50 PM41 °FPassing clouds.12 mph76%30.21 "HgN/A
5:20 PM43 °FPassing clouds.12 mph71%30.21 "HgN/A
4:50 PM43 °FPassing clouds.12 mph71%30.24 "HgN/A
4:20 PM43 °FPassing clouds.9 mph71%30.24 "HgN/A
3:50 PM43 °FPartly sunny.9 mph71%30.24 "HgN/A
3:20 PM43 °FPartly sunny.9 mph71%30.24 "HgN/A
2:50 PM43 °FBroken clouds.9 mph71%30.24 "HgN/A
2:20 PM43 °FPartly sunny.14 mph76%30.27 "HgN/A
1:50 PM43 °FBroken clouds.13 mph76%30.27 "HgN/A
1:20 PM43 °FBroken clouds.15 mph71%30.27 "HgN/A
12:50 PM41 °FPartly sunny.14 mph81%30.27 "HgN/A
12:20 PM41 °FBroken clouds.13 mph81%30.30 "HgN/A
11:50 AM41 °FPartly sunny.13 mph81%30.27 "HgN/A
11:20 AM41 °FPartly sunny.15 mph81%30.27 "HgN/A
10:50 AM39 °FPartly sunny.13 mph87%30.27 "HgN/A
10:20 AM39 °FSprinkles. Partly sunny.12 mph87%30.27 "HgN/A
9:50 AM39 °FBroken clouds.12 mph87%30.27 "HgN/A
9:20 AM39 °FPartly sunny.9 mph87%30.27 "HgN/A
8:50 AM39 °FSprinkles. Broken clouds.14 mph87%30.27 "Hg4 mi
8:20 AM39 °FBroken clouds.13 mph87%30.24 "HgN/A
7:50 AM39 °FPassing clouds.14 mph81%30.24 "HgN/A
7:20 AM39 °FPassing clouds.14 mph87%30.21 "HgN/A
6:50 AM37 °FLight rain. Passing clouds.14 mph93%30.21 "HgN/A
6:20 AM37 °FPartly cloudy.14 mph87%30.18 "HgN/A
5:50 AM37 °FPassing clouds.15 mph93%30.18 "HgN/A
5:20 AM37 °FPassing clouds.15 mph93%30.15 "HgN/A
4:50 AM37 °FSprinkles. Passing clouds.17 mph87%30.15 "Hg5 mi
4:20 AM39 °FPartly cloudy.18 mph81%30.12 "HgN/A
3:50 AM39 °FSprinkles. Partly cloudy.18 mph81%30.12 "HgN/A
3:20 AM39 °FPassing clouds.17 mph75%30.09 "HgN/A
2:50 AM39 °FPassing clouds.15 mph81%30.09 "HgN/A
2:20 AM37 °FPartly cloudy.17 mph81%30.09 "HgN/A
1:50 AM37 °FPassing clouds.15 mph81%30.09 "HgN/A
1:20 AM39 °FPassing clouds.16 mph75%30.07 "HgN/A
12:50 AM39 °FPassing clouds.14 mph81%30.07 "HgN/A
12:20 AM37 °FPartly cloudy.13 mph87%30.07 "HgN/A
11:50 PM
Dec 20
37 °FPassing clouds.10 mph87%30.04 "HgN/A
11:20 PM37 °FPartly cloudy.14 mph87%30.04 "HgN/A
10:20 PM37 °FPassing clouds.13 mph93%30.01 "HgN/A
9:50 PM36 °FRain showers. Partly cloudy.15 mph93%29.98 "Hg4 mi
9:20 PM37 °FLight rain. Partly cloudy.15 mph87%29.95 "HgN/A
8:50 PM37 °FLight rain. Passing clouds.15 mph87%29.95 "HgN/A
8:20 PM37 °FPartly cloudy.12 mph87%29.95 "HgN/A
7:50 PM36 °FPassing clouds.13 mph93%29.92 "HgN/A
7:20 PM36 °FSprinkles. Partly cloudy.14 mph93%29.92 "HgN/A
Weather by CustomWeather, © 2014

See weather overviewHow to use our weather pages